Baton Rouge, LA

2:33 AM CST on December 16, 2019 (GMT -0600)
Baton Rouge Metro-Ryan

Weather History for KBTR - August, 2019

Change the Weather History Date:

Tuesday, August 27, 2019

  Actual Average Record
Temperature  
Mean Temperature 85 °F 83 °F  
Max Temperature 93 °F 92 °F 100 °F (1943)
Min Temperature 76 °F 73 °F 60 °F (2015)
Degree Days  
Heating Degree Days 0 0  
Month to date heating degree days 0 0  
Since 1 June heating degree days 0 0  
Since 1 July heating degree days 0 0  
Cooling Degree Days 20 18  
Month to date cooling degree days 529 486  
Year to date cooling degree days 2263 2091  
Since 1 June cooling degree days 1592 1526  
Growing Degree Days 34 (Base 50)    
Moisture  
Dew Point 76 °F    
Average Humidity 76    
Maximum Humidity 100    
Minimum Humidity 52    
Precipitation  
Precipitation 0.00 in 0.17 in 1.88 in (1991)
Month to date precipitation 6.89 5.13  
Year to date precipitation 48.31 41.02  
Snow  
Snow 0.00 in - - ()
Month to date snowfall 0.0  
Since 1 June snowfall 0.0  
Since 1 July snowfall 0.0  
Snow Depth 0.00 in    
Sea Level Pressure  
Sea Level Pressure 29.94 in    
Wind  
Wind Speed 4 mph (SW)    
Max Wind Speed 13 mph    
Max Gust Speed 15 mph    
Visibility 7 miles    
Events Fog    
T = Trace of Precipitation, MM = Missing Value Source: NWS Daily Summary

Daily Weather History Graph

Daily Weather History Graph

Search for Another Location

Airport or City:

Astronomy

Aug. 27, 2019 Rise Set
Actual Time 6:38 AM CDT 7:33 PM CDT
Civil Twilight 6:13 AM CDT 7:58 PM CDT
Nautical Twilight 5:44 AM CDT 8:27 PM CDT
Astronomical Twilight 5:14 AM CDT 8:57 PM CDT
Moon 3:17 AM CDT (8/27) 5:40 PM CDT (8/27)
Length of Visible Light 13h 44m
Length of Day
12h 55m
Waning Crescent, 11% of the Moon is Illuminated
Aug 27
Waning Crescent
Aug 30
New
Sep 5
First Quarter
Sep 13
Full
Sep 21
Last Quarter

Hourly Weather History & Observations

Time (CDT) Temp. Heat Index Dew Point Humidity Pressure Visibility Wind Dir Wind Speed Gust Speed Precip Events Conditions
12:53 AM 77.0 °F - 75.0 °F 94% 29.88 in 7.0 mi ESE 3.5 mph - N/A   Scattered Clouds
1:14 AM 77.0 °F - 75.0 °F 94% 29.89 in 6.0 mi Calm Calm - N/A   Mostly Cloudy
1:53 AM 78.1 °F - 75.9 °F 93% 29.89 in 7.0 mi Calm Calm - N/A   Partly Cloudy
2:21 AM 77.0 °F - 75.0 °F 94% 29.89 in 6.0 mi South 3.5 mph - N/A   Scattered Clouds
2:36 AM 78.1 °F - 75.9 °F 93% 29.89 in 7.0 mi South 4.6 mph - N/A   Mostly Cloudy
2:53 AM 78.1 °F - 75.9 °F 93% 29.89 in 7.0 mi Calm Calm - N/A   Mostly Cloudy
3:53 AM 78.1 °F - 75.9 °F 93% 29.91 in 7.0 mi Calm Calm - N/A   Mostly Cloudy
4:44 AM 75.9 °F - 75.0 °F 97% 29.92 in 6.0 mi ENE 3.5 mph - N/A   Scattered Clouds
4:53 AM 75.9 °F - 75.0 °F 97% 29.92 in 4.0 mi Calm Calm - N/A   Scattered Clouds
5:02 AM 75.9 °F - 73.9 °F 94% 29.92 in 2.5 mi ENE 3.5 mph - N/A   Mostly Cloudy
5:09 AM 75.9 °F - 73.9 °F 94% 29.92 in 5.0 mi ENE 3.5 mph - N/A   Scattered Clouds
5:53 AM 75.9 °F - 73.9 °F 94% 29.94 in 5.0 mi Calm Calm - N/A   Scattered Clouds
5:55 AM 75.9 °F - 73.9 °F 94% 29.93 in 4.0 mi Calm Calm - N/A   Overcast
6:09 AM 75.9 °F - 75.0 °F 97% 29.92 in 2.5 mi SSE 3.5 mph - N/A   Overcast
6:15 AM 75.9 °F - 75.0 °F 97% 29.92 in 0.8 mi SSE 3.5 mph - N/A   Overcast
6:27 AM 75.9 °F - 75.0 °F 97% 29.92 in 3.0 mi SSE 3.5 mph - N/A   Overcast
7:33 AM 77.0 °F - 75.9 °F 96% 29.95 in 0.5 mi NE 3.5 mph - N/A Fog Fog
7:53 AM 77.0 °F - 75.9 °F 96% 29.96 in 0.2 mi ENE 3.5 mph - N/A Fog Fog
8:12 AM 78.8 °F - 77.0 °F 94% 29.96 in 0.2 mi Calm Calm - N/A Fog Fog
8:20 AM 78.1 °F - 77.0 °F 96% 29.96 in 0.2 mi Calm Calm - N/A Fog Fog
8:53 AM 79.0 °F - 78.1 °F 97% 29.98 in 0.2 mi North 3.5 mph - N/A Fog Fog
9:00 AM 80.1 °F 86.4 °F 78.1 °F 94% 29.98 in 4.0 mi Calm Calm - N/A   Overcast
9:51 AM 84.2 °F 96.1 °F 78.8 °F 84% 29.99 in 10.0 mi Calm Calm - N/A   Mostly Cloudy
9:53 AM 84.0 °F 94.8 °F 78.1 °F 82% 29.99 in 10.0 mi West 4.6 mph - N/A   Mostly Cloudy
10:03 AM 84.0 °F 93.7 °F 77.0 °F 79% 29.99 in 10.0 mi West 5.8 mph - N/A   Mostly Cloudy
10:35 AM 87.1 °F 97.3 °F 75.9 °F 69% 30.01 in 10.0 mi West 9.2 mph - N/A   Scattered Clouds
10:53 AM 88.0 °F 100.2 °F 77.0 °F 70% 30.00 in 10.0 mi West 8.1 mph - N/A   Scattered Clouds
11:53 AM 88.0 °F 97.5 °F 75.0 °F 65% 29.99 in 10.0 mi Variable 5.8 mph - N/A   Scattered Clouds
12:53 PM 91.0 °F 98.2 °F 72.0 °F 53% 29.96 in 10.0 mi Calm Calm - N/A   Scattered Clouds
1:53 PM 91.0 °F 100.4 °F 73.9 °F 57% 29.96 in 10.0 mi WNW 6.9 mph - N/A   Scattered Clouds
2:53 PM 93.0 °F 104.6 °F 75.0 °F 56% 29.93 in 10.0 mi WSW 8.1 mph - N/A   Clear
3:53 PM 90.0 °F 99.0 °F 73.9 °F 59% 29.93 in 10.0 mi WSW 8.1 mph - N/A   Scattered Clouds
4:53 PM 91.0 °F 101.6 °F 75.0 °F 59% 29.91 in 10.0 mi SW 6.9 mph - N/A   Scattered Clouds
5:53 PM 91.0 °F 101.6 °F 75.0 °F 59% 29.90 in 10.0 mi WSW 6.9 mph - N/A   Clear
6:53 PM 88.0 °F 98.5 °F 75.9 °F 67% 29.91 in 10.0 mi WSW 9.2 mph - N/A   Clear
7:53 PM 84.9 °F 93.3 °F 75.0 °F 72% 29.93 in 10.0 mi WSW 4.6 mph - N/A   Clear
8:53 PM 84.0 °F 92.6 °F 75.9 °F 76% 29.95 in 10.0 mi Calm Calm - N/A   Clear
9:53 PM 81.0 °F 87.9 °F 77.0 °F 88% 29.97 in 10.0 mi Calm Calm - N/A   Clear
10:53 PM 81.0 °F 87.9 °F 77.0 °F 88% 29.99 in 10.0 mi West 3.5 mph - N/A   Partly Cloudy
11:53 PM 81.0 °F 87.3 °F 75.9 °F 85% 29.99 in 10.0 mi West 3.5 mph - N/A   Clear